Time,TemperatureF,DewpointF,PressureIn,WindDirection,WindDirectionDegrees,WindSpeedMPH,WindSpeedGustMPH,Humidity,HourlyPrecipIn,Conditions,Clouds,dailyrainin,SoftwareType,DateUTC
2013-08-12 00:01:00,73.0,66.5,29.96,NNE,22,0.0,0.0,80,0.83,,---,0.00,VWS V13.01,2013-08-12 04:01:00,
2013-08-12 00:02:00,73.0,66.5,29.96,NNE,22,0.0,0.0,80,0.83,,---,0.00,VWS V13.01,2013-08-12 04:02:00,
2013-08-12 00:04:00,72.9,66.3,29.96,NNE,22,0.0,0.0,80,0.71,,---,0.00,VWS V13.01,2013-08-12 04:04:00,
2013-08-12 00:09:00,72.9,66.3,29.96,NNE,22,0.0,0.0,80,0.63,,---,0.00,VWS V13.01,2013-08-12 04:09:00,
2013-08-12 00:14:00,72.9,66.7,29.96,NNE,22,0.0,0.0,81,0.31,,---,0.00,VWS V13.01,2013-08-12 04:14:00,
2013-08-12 00:19:00,72.7,66.5,29.96,NNE,22,0.0,0.0,81,0.12,,---,0.00,VWS V13.01,2013-08-12 04:19:00,
2013-08-12 00:24:00,72.7,66.5,29.96,NNE,22,0.0,0.0,81,0.08,,---,0.00,VWS V13.01,2013-08-12 04:24:00,
2013-08-12 00:29:00,72.7,66.5,29.96,NNE,22,0.0,0.0,81,0.08,,---,0.00,VWS V13.01,2013-08-12 04:29:00,
2013-08-12 00:34:00,72.7,66.9,29.96,NNE,22,0.0,0.0,82,0.00,,---,0.00,VWS V13.01,2013-08-12 04:34:00,
2013-08-12 00:39:00,72.7,66.9,29.96,NNE,22,0.0,0.0,82,0.00,,---,0.00,VWS V13.01,2013-08-12 04:39:00,
2013-08-12 00:44:00,72.7,66.9,29.96,NNE,22,0.0,0.0,82,0.00,,---,0.00,VWS V13.01,2013-08-12 04:44:00,
2013-08-12 00:49:00,72.7,66.9,29.96,NNE,22,0.0,0.0,82,0.00,,---,0.00,VWS V13.01,2013-08-12 04:49:00,
2013-08-12 00:54:00,72.7,66.9,29.96,NNE,22,0.0,0.0,82,0.00,,---,0.00,VWS V13.01,2013-08-12 04:54:00,
2013-08-12 00:59:00,72.5,66.7,29.96,NNE,22,0.0,0.0,82,0.00,,---,0.00,VWS V13.01,2013-08-12 04:59:00,
2013-08-12 01:04:00,72.5,66.7,29.96,NNE,22,0.0,0.0,82,0.00,,---,0.00,VWS V13.01,2013-08-12 05:04:00,
2013-08-12 01:09:00,72.3,66.5,29.96,NNE,22,0.0,0.0,82,0.00,,---,0.00,VWS V13.01,2013-08-12 05:09:00,
2013-08-12 01:14:00,72.3,66.9,29.96,NNE,22,0.0,0.0,83,0.00,,---,0.00,VWS V13.01,2013-08-12 05:14:00,
2013-08-12 01:19:00,72.3,66.5,29.96,NNE,22,0.0,0.0,82,0.00,,---,0.00,VWS V13.01,2013-08-12 05:19:00,
2013-08-12 01:24:00,72.3,66.5,29.96,NNE,22,0.0,0.0,82,0.00,,---,0.00,VWS V13.01,2013-08-12 05:24:00,
2013-08-12 01:29:00,72.1,66.3,29.96,NNE,22,0.0,0.0,82,0.00,,---,0.00,VWS V13.01,2013-08-12 05:29:00,
2013-08-12 01:34:00,72.1,66.3,29.96,NNE,22,0.0,0.0,82,0.00,,---,0.00,VWS V13.01,2013-08-12 05:34:00,
2013-08-12 01:39:00,72.1,66.7,29.96,NNE,22,0.0,0.0,83,0.00,,---,0.00,VWS V13.01,2013-08-12 05:39:00,
2013-08-12 01:44:00,72.1,66.7,29.96,NNE,22,0.0,0.0,83,0.00,,---,0.00,VWS V13.01,2013-08-12 05:44:00,
2013-08-12 01:49:00,72.1,66.7,29.96,NNE,22,0.0,0.0,83,0.00,,---,0.00,VWS V13.01,2013-08-12 05:49:00,
2013-08-12 01:54:00,72.1,66.7,29.96,NNE,22,0.0,0.0,83,0.00,,---,0.00,VWS V13.01,2013-08-12 05:54:00,
2013-08-12 01:59:00,72.1,66.7,29.96,NNE,22,0.0,0.0,83,0.00,,---,0.00,VWS V13.01,2013-08-12 05:59:00,
2013-08-12 02:04:00,72.1,66.7,29.96,NNE,22,0.0,0.0,83,0.00,,---,0.00,VWS V13.01,2013-08-12 06:04:00,
2013-08-12 02:09:00,72.1,66.7,29.96,NNE,22,0.0,0.0,83,0.00,,---,0.00,VWS V13.01,2013-08-12 06:09:00,
2013-08-12 02:14:00,72.1,66.3,29.96,NNE,22,0.0,0.0,82,0.00,,---,0.00,VWS V13.01,2013-08-12 06:14:00,
2013-08-12 02:19:00,72.1,66.3,29.96,NNE,22,0.0,0.0,82,0.00,,---,0.00,VWS V13.01,2013-08-12 06:19:00,
2013-08-12 02:24:00,72.1,66.3,29.96,NNE,22,0.0,0.0,82,0.00,,---,0.00,VWS V13.01,2013-08-12 06:24:00,
2013-08-12 02:29:00,72.0,66.2,29.96,NNE,22,0.0,0.0,82,0.00,,---,0.00,VWS V13.01,2013-08-12 06:29:00,
2013-08-12 02:34:00,72.1,66.3,29.96,NNE,22,0.0,0.0,82,0.00,,---,0.00,VWS V13.01,2013-08-12 06:34:00,
2013-08-12 02:39:00,72.1,66.7,29.96,NNE,22,0.0,0.0,83,0.00,,---,0.00,VWS V13.01,2013-08-12 06:39:00,
2013-08-12 02:44:00,72.1,66.7,29.96,NNE,22,0.0,0.0,83,0.00,,---,0.00,VWS V13.01,2013-08-12 06:44:00,
2013-08-12 02:49:00,72.1,66.7,29.96,NNE,22,0.0,0.0,83,0.00,,---,0.00,VWS V13.01,2013-08-12 06:49:00,
2013-08-12 02:54:00,72.1,66.3,29.96,NNE,22,0.0,0.0,82,0.00,,---,0.00,VWS V13.01,2013-08-12 06:54:00,
2013-08-12 02:59:00,72.0,66.2,29.96,NNE,22,0.0,0.0,82,0.00,,---,0.00,VWS V13.01,2013-08-12 06:59:00,
2013-08-12 03:04:00,72.0,66.2,29.96,NNE,22,0.0,0.0,82,0.00,,---,0.00,VWS V13.01,2013-08-12 07:04:00,
2013-08-12 03:09:00,72.0,66.2,29.96,NNE,22,0.0,0.0,82,0.00,,---,0.00,VWS V13.01,2013-08-12 07:09:00,
2013-08-12 03:14:00,72.0,66.2,29.96,NNE,22,0.0,0.0,82,0.00,,---,0.00,VWS V13.01,2013-08-12 07:14:00,
2013-08-12 03:19:00,72.0,66.2,29.96,NNE,22,0.0,0.0,82,0.00,,---,0.00,VWS V13.01,2013-08-12 07:19:00,
2013-08-12 03:24:00,71.8,66.0,29.96,NNE,22,0.0,0.0,82,0.00,,---,0.00,VWS V13.01,2013-08-12 07:24:00,
2013-08-12 03:29:00,71.8,66.0,29.96,NNE,22,0.0,0.0,82,0.00,,---,0.00,VWS V13.01,2013-08-12 07:29:00,
2013-08-12 03:34:00,72.0,66.2,29.96,NNE,22,0.0,0.0,82,0.00,,---,0.00,VWS V13.01,2013-08-12 07:34:00,
2013-08-12 03:39:00,72.0,66.2,29.96,NNE,22,0.0,0.0,82,0.00,,---,0.00,VWS V13.01,2013-08-12 07:39:00,
2013-08-12 03:44:00,72.0,66.2,29.96,NNE,22,0.0,0.0,82,0.00,,---,0.00,VWS V13.01,2013-08-12 07:44:00,
2013-08-12 03:49:00,72.0,66.2,29.96,NNE,22,0.0,0.0,82,0.00,,---,0.00,VWS V13.01,2013-08-12 07:49:00,
2013-08-12 03:54:00,72.0,66.2,29.96,NNE,22,0.0,0.0,82,0.00,,---,0.00,VWS V13.01,2013-08-12 07:54:00,
2013-08-12 03:59:00,72.0,66.2,29.96,NNE,22,0.0,0.0,82,0.00,,---,0.00,VWS V13.01,2013-08-12 07:59:00,
2013-08-12 04:04:00,71.8,66.0,29.96,NNE,22,0.0,0.0,82,0.00,,---,0.00,VWS V13.01,2013-08-12 08:04:00,
2013-08-12 04:09:00,71.8,66.0,29.96,NNE,22,0.0,0.0,82,0.00,,---,0.00,VWS V13.01,2013-08-12 08:09:00,
2013-08-12 04:14:00,71.8,66.0,29.96,NNE,22,0.0,0.0,82,0.00,,---,0.00,VWS V13.01,2013-08-12 08:14:00,
2013-08-12 04:19:00,71.8,66.0,29.96,NNE,22,0.0,0.0,82,0.00,,---,0.00,VWS V13.01,2013-08-12 08:19:00,
2013-08-12 04:24:00,71.8,66.0,29.96,NNE,22,0.0,0.0,82,0.00,,---,0.00,VWS V13.01,2013-08-12 08:24:00,
2013-08-12 04:29:00,71.6,65.8,29.96,NNE,22,0.0,0.0,82,0.00,,---,0.00,VWS V13.01,2013-08-12 08:29:00,
2013-08-12 04:34:00,71.6,65.8,29.96,NNE,22,0.0,0.0,82,0.00,,---,0.00,VWS V13.01,2013-08-12 08:34:00,
2013-08-12 04:39:00,71.6,65.8,29.96,NNE,22,0.0,0.0,82,0.00,,---,0.00,VWS V13.01,2013-08-12 08:39:00,
2013-08-12 04:44:00,71.6,65.8,29.96,NNE,22,0.0,0.0,82,0.00,,---,0.00,VWS V13.01,2013-08-12 08:44:00,
2013-08-12 04:49:00,71.6,65.8,29.96,NNE,22,0.0,0.0,82,0.00,,---,0.00,VWS V13.01,2013-08-12 08:49:00,
2013-08-12 04:54:00,71.6,65.8,29.96,NNE,22,0.0,0.0,82,0.00,,---,0.00,VWS V13.01,2013-08-12 08:54:00,
2013-08-12 04:59:00,71.4,65.6,29.96,NNE,22,0.0,0.0,82,0.00,,---,0.00,VWS V13.01,2013-08-12 08:59:00,
2013-08-12 05:04:00,71.4,65.6,29.96,NNE,22,0.0,0.0,82,0.00,,---,0.00,VWS V13.01,2013-08-12 09:04:00,
2013-08-12 05:09:00,71.4,65.6,29.96,NNE,22,0.0,0.0,82,0.00,,---,0.00,VWS V13.01,2013-08-12 09:09:00,
2013-08-12 05:14:00,71.2,65.5,29.96,NNE,22,0.0,0.0,82,0.00,,---,0.00,VWS V13.01,2013-08-12 09:14:00,
2013-08-12 05:19:00,71.2,65.5,29.96,NNE,22,0.0,0.0,82,0.00,,---,0.00,VWS V13.01,2013-08-12 09:19:00,
2013-08-12 05:24:00,71.2,65.5,29.96,NNE,22,0.0,0.0,82,0.00,,---,0.00,VWS V13.01,2013-08-12 09:24:00,
2013-08-12 05:29:00,71.2,65.5,29.96,NNE,22,0.0,0.0,82,0.00,,---,0.00,VWS V13.01,2013-08-12 09:29:00,
2013-08-12 05:34:00,71.2,65.5,29.96,NNE,22,0.0,0.0,82,0.00,,---,0.00,VWS V13.01,2013-08-12 09:34:00,
2013-08-12 05:39:00,71.1,65.3,29.96,NNE,22,0.0,0.0,82,0.00,,---,0.00,VWS V13.01,2013-08-12 09:39:00,
2013-08-12 05:44:00,71.1,65.3,29.96,NNE,22,0.0,0.0,82,0.00,,---,0.00,VWS V13.01,2013-08-12 09:44:00,
2013-08-12 05:49:00,71.1,65.3,29.96,NNE,22,0.0,0.0,82,0.00,,---,0.00,VWS V13.01,2013-08-12 09:49:00,
2013-08-12 05:54:00,71.2,65.5,29.96,NNE,22,0.0,0.0,82,0.00,,---,0.00,VWS V13.01,2013-08-12 09:54:00,
2013-08-12 05:59:00,71.1,65.3,29.96,NNE,22,0.0,0.0,82,0.00,,---,0.00,VWS V13.01,2013-08-12 09:59:00,
2013-08-12 06:04:00,71.1,65.3,29.96,NNE,22,0.0,0.0,82,0.00,,---,0.00,VWS V13.01,2013-08-12 10:04:00,
2013-08-12 06:09:00,71.1,65.3,29.96,NNE,22,0.0,0.0,82,0.00,,---,0.00,VWS V13.01,2013-08-12 10:09:00,
2013-08-12 06:14:00,71.1,65.3,29.96,NNE,22,0.0,0.0,82,0.00,,---,0.00,VWS V13.01,2013-08-12 10:14:00,
2013-08-12 06:19:00,71.1,65.3,29.96,NNE,22,0.0,0.0,82,0.00,,---,0.00,VWS V13.01,2013-08-12 10:19:00,
2013-08-12 06:24:00,71.1,64.9,29.96,NNE,22,0.0,0.0,81,0.00,,---,0.00,VWS V13.01,2013-08-12 10:24:00,
2013-08-12 06:29:00,71.1,64.9,29.96,NNE,22,0.0,0.0,81,0.00,,---,0.00,VWS V13.01,2013-08-12 10:29:00,
2013-08-12 06:34:00,70.9,64.8,29.96,NNE,22,0.0,0.0,81,0.00,,---,0.00,VWS V13.01,2013-08-12 10:34:00,
2013-08-12 06:39:00,70.9,64.8,29.96,NNE,22,0.0,0.0,81,0.00,,---,0.00,VWS V13.01,2013-08-12 10:39:00,
2013-08-12 06:44:00,70.9,64.8,29.96,NNE,22,0.0,0.0,81,0.00,,---,0.00,VWS V13.01,2013-08-12 10:44:00,
2013-08-12 06:49:00,70.9,64.8,29.96,NNE,22,0.0,0.0,81,0.00,,---,0.00,VWS V13.01,2013-08-12 10:49:00,
2013-08-12 06:54:00,70.9,64.8,29.96,NNE,22,0.0,0.0,81,0.00,,---,0.00,VWS V13.01,2013-08-12 10:54:00,
2013-08-12 06:59:00,70.9,64.8,29.96,NNE,22,0.0,0.0,81,0.00,,---,0.00,VWS V13.01,2013-08-12 10:59:00,
2013-08-12 07:04:00,70.9,64.8,29.96,NNE,22,0.0,0.0,81,0.00,,---,0.00,VWS V13.01,2013-08-12 11:04:00,
2013-08-12 07:09:00,70.9,64.8,29.96,NNE,22,0.0,0.0,81,0.00,,---,0.00,VWS V13.01,2013-08-12 11:09:00,
2013-08-12 07:14:00,70.9,64.8,29.96,NNE,22,0.0,0.0,81,0.00,,---,0.00,VWS V13.01,2013-08-12 11:14:00,
2013-08-12 07:19:00,70.9,64.8,29.96,NNE,22,0.0,0.0,81,0.00,,---,0.00,VWS V13.01,2013-08-12 11:19:00,
2013-08-12 07:24:00,70.9,64.8,29.96,NNE,22,0.0,0.0,81,0.00,,---,0.00,VWS V13.01,2013-08-12 11:24:00,
2013-08-12 07:29:00,70.9,64.8,29.96,NNE,22,0.0,0.0,81,0.00,,---,0.00,VWS V13.01,2013-08-12 11:29:00,
2013-08-12 07:34:00,70.9,64.8,29.96,NNE,22,0.0,0.0,81,0.00,,---,0.00,VWS V13.01,2013-08-12 11:34:00,
2013-08-12 07:39:00,70.9,64.8,29.96,NNE,22,0.0,0.0,81,0.00,,---,0.00,VWS V13.01,2013-08-12 11:39:00,
2013-08-12 07:44:00,70.9,64.8,29.96,NNE,22,0.0,0.0,81,0.00,,---,0.00,VWS V13.01,2013-08-12 11:44:00,
2013-08-12 07:49:00,71.1,64.9,29.96,NNE,22,0.0,0.0,81,0.00,,---,0.00,VWS V13.01,2013-08-12 11:49:00,
2013-08-12 07:54:00,71.1,64.9,29.96,NNE,22,0.0,0.0,81,0.00,,---,0.00,VWS V13.01,2013-08-12 11:54:00,
2013-08-12 07:59:00,71.1,64.9,29.96,NNE,22,0.0,0.0,81,0.00,,---,0.00,VWS V13.01,2013-08-12 11:59:00,
2013-08-12 08:04:00,71.2,65.1,29.96,NNE,25,0.0,0.0,81,0.00,,---,0.00,VWS V13.01,2013-08-12 12:04:00,
2013-08-12 08:09:00,71.4,65.3,29.96,NNE,25,0.0,0.0,81,0.00,,---,0.00,VWS V13.01,2013-08-12 12:09:00,
2013-08-12 08:14:00,71.4,65.3,29.96,NNE,25,0.0,0.0,81,0.00,,---,0.00,VWS V13.01,2013-08-12 12:14:00,
2013-08-12 08:19:00,71.8,65.6,29.96,NNE,25,0.0,0.0,81,0.00,,---,0.00,VWS V13.01,2013-08-12 12:19:00,
2013-08-12 08:24:00,71.8,65.6,29.96,NNE,25,0.0,0.0,81,0.00,,---,0.00,VWS V13.01,2013-08-12 12:24:00,
2013-08-12 08:29:00,72.0,65.8,29.96,NNE,25,0.0,0.0,81,0.00,,---,0.00,VWS V13.01,2013-08-12 12:29:00,
2013-08-12 08:34:00,72.0,65.5,29.96,NNE,25,0.0,0.0,80,0.00,,---,0.00,VWS V13.01,2013-08-12 12:34:00,
2013-08-12 08:39:00,72.0,65.5,29.96,NE,46,0.0,0.0,80,0.00,,---,0.00,VWS V13.01,2013-08-12 12:39:00,
2013-08-12 08:44:00,72.1,65.6,29.96,NE,46,0.0,0.0,80,0.00,,---,0.00,VWS V13.01,2013-08-12 12:44:00,
2013-08-12 08:49:00,72.3,65.8,29.96,NE,46,0.0,0.0,80,0.00,,---,0.00,VWS V13.01,2013-08-12 12:49:00,
2013-08-12 08:54:00,72.5,66.0,29.96,NE,46,0.0,0.0,80,0.00,,---,0.00,VWS V13.01,2013-08-12 12:54:00,
2013-08-12 08:59:00,72.7,66.2,29.96,NE,46,0.0,0.0,80,0.00,,---,0.00,VWS V13.01,2013-08-12 12:59:00,
2013-08-12 09:04:00,72.7,66.2,29.96,NE,46,0.0,0.0,80,0.00,,---,0.00,VWS V13.01,2013-08-12 13:04:00,
2013-08-12 09:09:00,73.0,66.5,29.96,NE,46,0.0,0.0,80,0.00,,---,0.00,VWS V13.01,2013-08-12 13:09:00,
2013-08-12 09:14:00,73.0,66.5,29.96,NE,51,0.0,0.0,80,0.00,,---,0.00,VWS V13.01,2013-08-12 13:14:00,
2013-08-12 09:19:00,73.2,66.3,29.96,NE,51,0.0,0.0,79,0.00,,---,0.00,VWS V13.01,2013-08-12 13:19:00,
2013-08-12 09:24:00,73.4,66.5,29.96,NE,51,0.0,0.0,79,0.00,,---,0.00,VWS V13.01,2013-08-12 13:24:00,
2013-08-12 09:29:00,73.6,66.7,29.96,NE,51,0.0,0.0,79,0.00,,---,0.00,VWS V13.01,2013-08-12 13:29:00,
2013-08-12 09:34:00,73.8,66.5,29.96,SE,133,0.0,0.0,78,0.00,,---,0.00,VWS V13.01,2013-08-12 13:34:00,
2013-08-12 09:39:00,73.9,66.7,29.96,SE,133,0.0,0.0,78,0.00,,---,0.00,VWS V13.01,2013-08-12 13:39:00,
2013-08-12 09:44:00,73.9,66.3,29.96,SE,137,0.0,0.0,77,0.00,,---,0.00,VWS V13.01,2013-08-12 13:44:00,
2013-08-12 09:49:00,74.1,66.1,29.96,SE,137,0.0,0.0,76,0.00,,---,0.00,VWS V13.01,2013-08-12 13:49:00,
2013-08-12 09:54:00,74.5,66.4,29.96,ESE,123,0.0,0.0,76,0.00,,---,0.00,VWS V13.01,2013-08-12 13:54:00,
2013-08-12 09:59:00,74.5,65.7,29.96,NW,325,0.0,0.0,74,0.00,,---,0.00,VWS V13.01,2013-08-12 13:59:00,
2013-08-12 10:04:00,74.8,65.2,29.96,NW,325,0.0,0.0,72,0.00,,---,0.00,VWS V13.01,2013-08-12 14:04:00,
2013-08-12 10:09:00,75.0,65.4,29.96,NW,325,0.0,0.0,72,0.00,,---,0.00,VWS V13.01,2013-08-12 14:09:00,
2013-08-12 10:14:00,75.4,64.9,29.96,NW,325,0.0,0.0,70,0.00,,---,0.00,VWS V13.01,2013-08-12 14:14:00,
2013-08-12 10:19:00,75.7,64.9,29.96,NW,325,0.0,0.0,69,0.00,,---,0.00,VWS V13.01,2013-08-12 14:19:00,
2013-08-12 10:24:00,75.9,65.0,29.96,NW,325,0.0,0.0,69,0.00,,---,0.00,VWS V13.01,2013-08-12 14:24:00,
2013-08-12 10:29:00,76.3,64.9,29.96,NW,325,0.0,0.0,68,0.00,,---,0.00,VWS V13.01,2013-08-12 14:29:00,
2013-08-12 10:34:00,76.5,65.1,29.96,NW,325,0.0,0.0,68,0.00,,---,0.00,VWS V13.01,2013-08-12 14:34:00,
2013-08-12 10:39:00,76.5,64.7,29.96,NNW,346,0.0,0.0,67,0.00,,---,0.00,VWS V13.01,2013-08-12 14:39:00,
2013-08-12 10:44:00,77.0,63.5,29.96,NNW,346,0.0,0.0,63,0.00,,---,0.00,VWS V13.01,2013-08-12 14:44:00,
2013-08-12 10:49:00,77.4,63.8,29.96,ENE,68,0.0,0.0,63,0.00,,---,0.00,VWS V13.01,2013-08-12 14:49:00,
2013-08-12 10:54:00,77.7,64.1,29.96,ENE,66,0.0,0.0,63,0.00,,---,0.00,VWS V13.01,2013-08-12 14:54:00,
2013-08-12 10:59:00,77.9,63.8,29.96,ENE,66,0.0,0.0,62,0.00,,---,0.00,VWS V13.01,2013-08-12 14:59:00,
2013-08-12 11:04:00,78.6,63.1,29.96,ENE,66,0.0,0.0,59,0.00,,---,0.00,VWS V13.01,2013-08-12 15:04:00,
2013-08-12 11:09:00,79.0,62.0,29.96,ENE,66,0.0,0.0,56,0.00,,---,0.00,VWS V13.01,2013-08-12 15:09:00,
2013-08-12 11:14:00,79.7,62.1,29.96,NE,55,0.0,0.0,55,0.00,,---,0.00,VWS V13.01,2013-08-12 15:14:00,
2013-08-12 11:19:00,80.1,60.9,29.96,NE,55,0.0,0.0,52,0.00,,---,0.00,VWS V13.01,2013-08-12 15:19:00,
2013-08-12 11:24:00,80.1,59.2,29.96,WSW,244,0.0,0.0,49,0.00,,---,0.00,VWS V13.01,2013-08-12 15:24:00,
2013-08-12 11:29:00,80.6,59.7,29.96,NNW,327,0.0,0.0,49,0.00,,---,0.00,VWS V13.01,2013-08-12 15:29:00,
2013-08-12 11:34:00,80.6,59.7,29.96,NNW,327,0.0,0.0,49,0.00,,---,0.00,VWS V13.01,2013-08-12 15:34:00,
2013-08-12 11:39:00,81.3,60.9,29.96,NNW,346,0.0,0.0,50,0.00,,---,0.00,VWS V13.01,2013-08-12 15:39:00,
2013-08-12 11:44:00,81.7,61.2,29.96,North,2,0.0,0.0,50,0.00,,---,0.00,VWS V13.01,2013-08-12 15:44:00,
2013-08-12 11:49:00,81.7,59.5,29.96,North,2,0.0,0.0,47,0.00,,---,0.00,VWS V13.01,2013-08-12 15:49:00,
2013-08-12 11:54:00,82.2,60.0,29.96,East,87,0.0,0.0,47,0.00,,---,0.00,VWS V13.01,2013-08-12 15:54:00,
2013-08-12 11:59:00,82.4,56.4,29.96,East,89,0.0,0.0,41,0.00,,---,0.00,VWS V13.01,2013-08-12 15:59:00,
2013-08-12 12:04:00,82.8,57.3,29.96,East,89,0.0,0.0,42,0.00,,---,0.00,VWS V13.01,2013-08-12 16:04:00,
2013-08-12 12:09:00,83.3,54.3,29.96,ESE,122,0.0,0.0,37,0.00,,---,0.00,VWS V13.01,2013-08-12 16:09:00,
2013-08-12 12:14:00,83.8,56.3,29.96,ESE,122,0.0,0.0,39,0.00,,---,0.00,VWS V13.01,2013-08-12 16:14:00,
2013-08-12 12:19:00,84.0,55.7,29.96,ESE,108,0.0,0.0,38,0.00,,---,0.00,VWS V13.01,2013-08-12 16:19:00,
2013-08-12 12:24:00,84.6,53.1,29.96,NNE,14,0.0,0.0,34,0.00,,---,0.00,VWS V13.01,2013-08-12 16:24:00,
2013-08-12 12:29:00,85.1,57.4,29.96,ENE,59,0.0,0.0,39,0.00,,---,0.00,VWS V13.01,2013-08-12 16:29:00,
2013-08-12 12:34:00,84.9,55.8,29.96,ESE,119,0.0,0.0,37,0.00,,---,0.00,VWS V13.01,2013-08-12 16:34:00,
2013-08-12 12:39:00,85.3,54.6,29.96,NE,50,0.0,0.0,35,0.00,,---,0.00,VWS V13.01,2013-08-12 16:39:00,
2013-08-12 12:44:00,85.8,53.4,29.96,East,89,0.0,0.0,33,0.00,,---,0.00,VWS V13.01,2013-08-12 16:44:00,
2013-08-12 12:49:00,85.8,53.4,29.96,SSW,209,0.0,0.0,33,0.00,,---,0.00,VWS V13.01,2013-08-12 16:49:00,
2013-08-12 12:54:00,86.5,54.9,29.96,SE,135,0.0,0.0,34,0.00,,---,0.00,VWS V13.01,2013-08-12 16:54:00,
2013-08-12 12:59:00,86.7,54.2,29.96,ENE,67,0.0,0.0,33,0.00,,---,0.00,VWS V13.01,2013-08-12 16:59:00,
2013-08-12 13:04:00,86.9,51.8,29.96,NNE,24,0.0,0.0,30,0.00,,---,0.00,VWS V13.01,2013-08-12 17:04:00,
2013-08-12 13:09:00,87.6,52.4,29.96,ESE,111,0.0,0.0,30,0.00,,---,0.00,VWS V13.01,2013-08-12 17:09:00,
2013-08-12 13:14:00,87.6,53.3,29.96,East,89,0.0,0.0,31,0.00,,---,0.00,VWS V13.01,2013-08-12 17:14:00,
2013-08-12 13:19:00,87.6,53.3,29.96,SSE,163,3.1,3.1,31,0.00,,---,0.00,VWS V13.01,2013-08-12 17:19:00,
2013-08-12 13:24:00,88.2,52.8,29.96,SSE,151,0.0,0.0,30,0.00,,---,0.00,VWS V13.01,2013-08-12 17:24:00,
2013-08-12 13:29:00,88.5,54.1,29.96,ESE,106,0.0,0.0,31,0.00,,---,0.00,VWS V13.01,2013-08-12 17:29:00,
2013-08-12 13:34:00,88.5,54.1,29.96,ESE,116,0.0,0.0,31,0.00,,---,0.00,VWS V13.01,2013-08-12 17:34:00,
2013-08-12 13:39:00,87.1,52.8,29.96,SSW,211,0.0,0.0,31,0.00,,---,0.00,VWS V13.01,2013-08-12 17:39:00,
2013-08-12 13:44:00,87.4,53.1,29.96,West,259,0.0,0.0,31,0.00,,---,0.00,VWS V13.01,2013-08-12 17:44:00,
2013-08-12 13:49:00,86.4,52.2,29.96,West,259,0.0,0.0,31,0.00,,---,0.00,VWS V13.01,2013-08-12 17:49:00,
2013-08-12 13:54:00,86.7,52.5,29.96,East,85,0.0,0.0,31,0.00,,---,0.00,VWS V13.01,2013-08-12 17:54:00,
2013-08-12 13:59:00,87.3,53.8,29.96,SSE,156,0.0,0.0,32,0.00,,---,0.00,VWS V13.01,2013-08-12 17:59:00,
2013-08-12 14:04:00,88.0,52.7,29.96,SSW,193,0.0,0.0,30,0.00,,---,0.00,VWS V13.01,2013-08-12 18:04:00,
2013-08-12 14:09:00,88.2,52.8,29.96,NE,52,0.0,0.0,30,0.00,,---,0.00,VWS V13.01,2013-08-12 18:09:00,
2013-08-12 14:14:00,88.7,52.4,29.96,East,96,0.0,3.1,29,0.00,,---,0.00,VWS V13.01,2013-08-12 18:14:00,
2013-08-12 14:19:00,88.7,52.4,29.96,ENE,62,0.0,0.0,29,0.00,,---,0.00,VWS V13.01,2013-08-12 18:19:00,
2013-08-12 14:24:00,89.2,52.9,29.96,NNW,331,3.1,3.1,29,0.00,,---,0.00,VWS V13.01,2013-08-12 18:24:00,
2013-08-12 14:26:00,89.1,51.8,29.96,NNW,331,0.0,0.0,28,0.00,,---,0.00,VWS V13.01,2013-08-12 18:26:00,
2013-08-12 14:31:00,89.1,51.8,29.96,SE,141,0.0,0.0,28,0.00,,---,0.00,VWS V13.01,2013-08-12 18:31:00,
2013-08-12 14:36:00,89.8,51.4,29.96,ESE,116,0.0,0.0,27,0.00,,---,0.00,VWS V13.01,2013-08-12 18:36:00,
2013-08-12 14:41:00,90.0,51.5,29.96,NNW,335,0.0,0.0,27,0.00,,---,0.00,VWS V13.01,2013-08-12 18:41:00,
2013-08-12 14:46:00,90.3,52.8,29.96,North,357,0.0,0.0,28,0.00,,---,0.00,VWS V13.01,2013-08-12 18:46:00,
2013-08-12 14:51:00,90.9,49.1,29.96,North,357,0.0,0.0,24,0.00,,---,0.00,VWS V13.01,2013-08-12 18:51:00,
2013-08-12 14:56:00,90.9,50.2,29.96,WNW,294,0.0,2.7,25,0.00,,---,0.00,VWS V13.01,2013-08-12 18:56:00,
2013-08-12 15:01:00,90.9,52.3,29.96,WNW,294,0.0,0.0,27,0.00,,---,0.00,VWS V13.01,2013-08-12 19:01:00,
2013-08-12 15:06:00,89.1,51.8,29.96,WNW,294,0.0,0.0,28,0.00,,---,0.00,VWS V13.01,2013-08-12 19:06:00,
2013-08-12 15:11:00,88.0,50.8,29.96,WNW,295,0.0,0.0,28,0.00,,---,0.00,VWS V13.01,2013-08-12 19:11:00,
2013-08-12 15:16:00,87.3,51.2,29.96,ESE,115,0.0,0.0,29,0.00,,---,0.00,VWS V13.01,2013-08-12 19:16:00,
2013-08-12 15:21:00,87.1,51.9,29.96,ESE,115,0.0,0.0,30,0.00,,---,0.00,VWS V13.01,2013-08-12 19:21:00,
2013-08-12 15:26:00,87.1,51.9,29.96,ESE,115,0.0,0.0,30,0.00,,---,0.00,VWS V13.01,2013-08-12 19:26:00,
2013-08-12 15:31:00,88.9,53.5,29.96,ESE,115,0.0,0.0,30,0.00,,---,0.00,VWS V13.01,2013-08-12 19:31:00,
2013-08-12 15:36:00,90.0,52.5,29.96,SSW,204,0.0,0.0,28,0.00,,---,0.00,VWS V13.01,2013-08-12 19:36:00,
2013-08-12 15:41:00,90.9,53.3,29.96,North,357,2.7,2.7,28,0.00,,---,0.00,VWS V13.01,2013-08-12 19:41:00,
2013-08-12 15:46:00,91.4,51.7,29.96,NNW,341,2.7,2.7,26,0.00,,---,0.00,VWS V13.01,2013-08-12 19:46:00,
2013-08-12 15:51:00,91.8,51.0,29.96,North,0,0.0,2.7,25,0.00,,---,0.00,VWS V13.01,2013-08-12 19:51:00,
2013-08-12 15:56:00,91.9,50.0,29.96,North,353,2.2,2.2,24,0.00,,---,0.00,VWS V13.01,2013-08-12 19:56:00,
2013-08-12 16:01:00,92.1,49.0,29.96,North,353,0.0,0.0,23,0.00,,---,0.00,VWS V13.01,2013-08-12 20:01:00,
2013-08-12 16:06:00,92.1,50.2,29.96,North,353,0.0,0.0,24,0.00,,---,0.00,VWS V13.01,2013-08-12 20:06:00,
2013-08-12 16:11:00,91.9,46.5,29.96,SSE,160,0.0,0.0,21,0.00,,---,0.00,VWS V13.01,2013-08-12 20:11:00,
2013-08-12 16:16:00,91.9,47.7,29.96,South,182,0.0,0.0,22,0.00,,---,0.00,VWS V13.01,2013-08-12 20:16:00,
2013-08-12 16:21:00,91.2,48.3,29.96,South,174,0.0,0.0,23,0.00,,---,0.00,VWS V13.01,2013-08-12 20:21:00,
2013-08-12 16:26:00,91.2,48.3,29.96,South,176,0.0,0.0,23,0.00,,---,0.00,VWS V13.01,2013-08-12 20:26:00,
2013-08-12 16:31:00,90.5,48.8,29.96,South,176,0.0,0.0,24,0.00,,---,0.00,VWS V13.01,2013-08-12 20:31:00,
2013-08-12 16:36:00,90.1,49.6,29.96,South,176,0.0,0.0,25,0.00,,---,0.00,VWS V13.01,2013-08-12 20:36:00,
2013-08-12 16:41:00,89.4,50.0,29.96,West,274,0.0,0.0,26,0.00,,---,0.00,VWS V13.01,2013-08-12 20:41:00,
2013-08-12 16:46:00,88.3,48.1,29.96,West,274,0.0,0.0,25,0.00,,---,0.00,VWS V13.01,2013-08-12 20:46:00,
2013-08-12 16:51:00,88.5,51.3,29.96,West,274,0.0,0.0,28,0.00,,---,0.00,VWS V13.01,2013-08-12 20:51:00,
2013-08-12 16:56:00,88.2,51.0,29.96,West,274,0.0,0.0,28,0.00,,---,0.00,VWS V13.01,2013-08-12 20:56:00,
2013-08-12 17:01:00,88.2,51.0,29.96,West,274,0.0,0.0,28,0.00,,---,0.00,VWS V13.01,2013-08-12 21:01:00,
2013-08-12 17:06:00,88.2,51.9,29.96,West,274,0.0,0.0,29,0.00,,---,0.00,VWS V13.01,2013-08-12 21:06:00,
2013-08-12 17:11:00,88.5,52.2,29.96,West,274,0.0,0.0,29,0.00,,---,0.00,VWS V13.01,2013-08-12 21:11:00,
2013-08-12 17:16:00,89.4,53.0,29.96,West,274,0.0,0.0,29,0.00,,---,0.00,VWS V13.01,2013-08-12 21:16:00,
2013-08-12 17:21:00,89.2,51.9,29.96,West,274,0.0,0.0,28,0.00,,---,0.00,VWS V13.01,2013-08-12 21:21:00,
2013-08-12 17:26:00,89.8,52.4,29.96,West,274,0.0,0.0,28,0.00,,---,0.00,VWS V13.01,2013-08-12 21:26:00,
2013-08-12 17:31:00,90.3,52.8,29.96,West,274,0.0,0.0,28,0.00,,---,0.00,VWS V13.01,2013-08-12 21:31:00,
2013-08-12 17:36:00,90.1,51.7,29.96,NW,317,0.0,0.0,27,0.00,,---,0.00,VWS V13.01,2013-08-12 21:36:00,
2013-08-12 17:41:00,90.1,52.7,29.96,NNW,341,0.0,0.0,28,0.00,,---,0.00,VWS V13.01,2013-08-12 21:41:00,
2013-08-12 17:46:00,90.0,51.5,29.96,NNW,342,0.0,0.0,27,0.00,,---,0.00,VWS V13.01,2013-08-12 21:46:00,
2013-08-12 17:51:00,90.0,51.5,29.96,NNW,342,0.0,0.0,27,0.00,,---,0.00,VWS V13.01,2013-08-12 21:51:00,
2013-08-12 17:56:00,89.2,50.9,29.96,NNW,342,0.0,0.0,27,0.00,,---,0.00,VWS V13.01,2013-08-12 21:56:00,
2013-08-12 18:01:00,88.9,50.6,29.96,NNW,342,0.0,0.0,27,0.00,,---,0.00,VWS V13.01,2013-08-12 22:01:00,
2013-08-12 18:07:00,88.2,51.0,29.96,NNW,342,0.0,0.0,28,0.00,,---,0.00,VWS V13.01,2013-08-12 22:07:00,
2013-08-12 18:12:00,87.4,51.3,29.96,NNW,342,0.0,0.0,29,0.00,,---,0.00,VWS V13.01,2013-08-12 22:12:00,
2013-08-12 18:17:00,87.3,51.2,29.96,NNW,342,0.0,0.0,29,0.00,,---,0.00,VWS V13.01,2013-08-12 22:17:00,
2013-08-12 18:22:00,86.2,52.0,29.96,NNW,342,0.0,0.0,31,0.00,,---,0.00,VWS V13.01,2013-08-12 22:22:00,
2013-08-12 18:27:00,85.5,52.3,29.96,NNW,342,0.0,0.0,32,0.00,,---,0.00,VWS V13.01,2013-08-12 22:27:00,
2013-08-12 18:31:00,85.1,52.8,29.96,NNW,342,0.0,0.0,33,0.00,,---,0.00,VWS V13.01,2013-08-12 22:31:00,
2013-08-12 18:37:00,85.1,52.8,29.96,NNW,342,0.0,0.0,33,0.00,,---,0.00,VWS V13.01,2013-08-12 22:37:00,
2013-08-12 18:41:00,84.9,54.2,29.96,NNW,342,0.0,0.0,35,0.00,,---,0.00,VWS V13.01,2013-08-12 22:41:00,
2013-08-12 18:47:00,84.6,54.7,29.96,NNW,342,0.0,0.0,36,0.00,,---,0.00,VWS V13.01,2013-08-12 22:47:00,
2013-08-12 18:52:00,84.6,54.7,29.96,NNW,342,0.0,0.0,36,0.00,,---,0.00,VWS V13.01,2013-08-12 22:52:00,
2013-08-12 18:57:00,84.0,55.7,29.96,NNW,342,0.0,0.0,38,0.00,,---,0.00,VWS V13.01,2013-08-12 22:57:00,
2013-08-12 19:01:00,84.0,55.7,29.96,NNW,342,0.0,0.0,38,0.00,,---,0.00,VWS V13.01,2013-08-12 23:01:00,
2013-08-12 19:06:00,83.7,56.1,29.96,NNW,342,0.0,0.0,39,0.00,,---,0.00,VWS V13.01,2013-08-12 23:06:00,
2013-08-12 19:12:00,83.7,56.8,29.96,NNW,342,0.0,0.0,40,0.00,,---,0.00,VWS V13.01,2013-08-12 23:12:00,
2013-08-12 19:17:00,83.5,56.6,29.96,NNW,342,0.0,0.0,40,0.00,,---,0.00,VWS V13.01,2013-08-12 23:17:00,
2013-08-12 19:22:00,83.5,56.6,29.96,NNW,342,0.0,0.0,40,0.00,,---,0.00,VWS V13.01,2013-08-12 23:22:00,
2013-08-12 19:27:00,83.1,57.0,29.96,NNW,342,0.0,0.0,41,0.00,,---,0.00,VWS V13.01,2013-08-12 23:27:00,
2013-08-12 19:32:00,82.9,56.8,29.96,NNW,342,0.0,0.0,41,0.00,,---,0.00,VWS V13.01,2013-08-12 23:32:00,
2013-08-12 19:37:00,82.6,56.5,29.96,NNW,342,0.0,0.0,41,0.00,,---,0.00,VWS V13.01,2013-08-12 23:37:00,
2013-08-12 19:42:00,82.4,57.0,29.96,NNW,342,0.0,0.0,42,0.00,,---,0.00,VWS V13.01,2013-08-12 23:42:00,
2013-08-12 19:47:00,82.0,57.4,29.96,NNW,342,0.0,0.0,43,0.00,,---,0.00,VWS V13.01,2013-08-12 23:47:00,
2013-08-12 19:52:00,81.9,57.2,29.96,NNW,342,0.0,0.0,43,0.00,,---,0.00,VWS V13.01,2013-08-12 23:52:00,
2013-08-12 19:57:00,81.7,57.0,29.96,NNW,342,0.0,0.0,43,0.00,,---,0.00,VWS V13.01,2013-08-12 23:57:00,
2013-08-12 20:02:00,81.5,56.9,29.96,NNW,342,0.0,0.0,43,0.00,,---,0.00,VWS V13.01,2013-08-13 00:02:00,
2013-08-12 20:07:00,81.3,57.3,29.96,NNW,342,0.0,0.0,44,0.00,,---,0.00,VWS V13.01,2013-08-13 00:07:00,
2013-08-12 20:12:00,81.3,57.3,29.96,NNW,342,0.0,0.0,44,0.00,,---,0.00,VWS V13.01,2013-08-13 00:12:00,
2013-08-12 20:17:00,81.1,57.2,29.96,NNW,342,0.0,0.0,44,0.00,,---,0.00,VWS V13.01,2013-08-13 00:17:00,
2013-08-12 20:22:00,80.8,57.5,29.96,NNW,342,0.0,0.0,45,0.00,,---,0.00,VWS V13.01,2013-08-13 00:22:00,
2013-08-12 20:27:00,80.6,57.3,29.96,NNW,342,0.0,0.0,45,0.00,,---,0.00,VWS V13.01,2013-08-13 00:27:00,
2013-08-12 20:32:00,80.6,57.3,29.96,NNW,342,0.0,0.0,45,0.00,,---,0.00,VWS V13.01,2013-08-13 00:32:00,
2013-08-12 20:37:00,80.4,57.8,29.96,NNW,342,0.0,0.0,46,0.00,,---,0.00,VWS V13.01,2013-08-13 00:37:00,
2013-08-12 20:42:00,80.1,58.6,29.96,NNW,342,0.0,0.0,48,0.00,,---,0.00,VWS V13.01,2013-08-13 00:42:00,
2013-08-12 20:47:00,80.1,58.6,29.96,NNW,342,0.0,0.0,48,0.00,,---,0.00,VWS V13.01,2013-08-13 00:47:00,
2013-08-12 20:52:00,79.2,57.8,29.96,NNW,342,0.0,0.0,48,0.00,,---,0.00,VWS V13.01,2013-08-13 00:52:00,
2013-08-12 20:57:00,79.0,57.6,29.96,NNW,342,0.0,0.0,48,0.00,,---,0.00,VWS V13.01,2013-08-13 00:57:00,
2013-08-12 21:02:00,78.8,58.0,29.96,NNW,342,0.0,0.0,49,0.00,,---,0.00,VWS V13.01,2013-08-13 01:02:00,
2013-08-12 21:07:00,78.4,57.7,29.96,NNW,342,0.0,0.0,49,0.00,,---,0.00,VWS V13.01,2013-08-13 01:07:00,
2013-08-12 21:12:00,78.4,58.3,29.96,NNW,342,0.0,0.0,50,0.00,,---,0.00,VWS V13.01,2013-08-13 01:12:00,
2013-08-12 21:17:00,78.3,58.1,29.96,NNW,342,0.0,0.0,50,0.00,,---,0.00,VWS V13.01,2013-08-13 01:17:00,
2013-08-12 21:22:00,78.1,58.0,29.96,NNW,342,0.0,0.0,50,0.00,,---,0.00,VWS V13.01,2013-08-13 01:22:00,
2013-08-12 21:27:00,78.1,58.5,29.96,NNW,342,0.0,0.0,51,0.00,,---,0.00,VWS V13.01,2013-08-13 01:27:00,
2013-08-12 21:32:00,77.7,58.2,29.96,NNW,342,0.0,0.0,51,0.00,,---,0.00,VWS V13.01,2013-08-13 01:32:00,
2013-08-12 21:37:00,77.5,58.5,29.96,NNW,342,0.0,0.0,52,0.00,,---,0.00,VWS V13.01,2013-08-13 01:37:00,
2013-08-12 21:42:00,77.5,59.1,29.96,NNW,342,0.0,0.0,53,0.00,,---,0.00,VWS V13.01,2013-08-13 01:42:00,
2013-08-12 21:47:00,77.4,58.9,29.96,NNW,342,0.0,0.0,53,0.00,,---,0.00,VWS V13.01,2013-08-13 01:47:00,
2013-08-12 21:52:00,77.2,58.7,29.96,NNW,342,0.0,0.0,53,0.00,,---,0.00,VWS V13.01,2013-08-13 01:52:00,
2013-08-12 21:57:00,76.8,59.5,29.96,NNW,342,0.0,0.0,55,0.00,,---,0.00,VWS V13.01,2013-08-13 01:57:00,
2013-08-12 22:02:00,76.6,59.8,29.96,NNW,342,0.0,0.0,56,0.00,,---,0.00,VWS V13.01,2013-08-13 02:02:00,
2013-08-12 22:07:00,76.6,60.8,29.96,NNW,342,0.0,0.0,58,0.00,,---,0.00,VWS V13.01,2013-08-13 02:07:00,
2013-08-12 22:12:00,76.6,60.8,29.96,NNW,342,0.0,0.0,58,0.00,,---,0.00,VWS V13.01,2013-08-13 02:12:00,
2013-08-12 22:17:00,76.3,63.2,29.96,West,274,0.0,0.0,64,0.04,,---,0.04,VWS V13.01,2013-08-13 02:17:00,
2013-08-12 22:22:00,76.1,63.0,29.96,SW,223,3.1,3.1,64,0.12,,---,0.12,VWS V13.01,2013-08-13 02:22:00,
2013-08-12 22:27:00,74.7,62.6,29.96,NNE,33,0.0,0.0,66,0.12,,---,0.12,VWS V13.01,2013-08-13 02:27:00,
2013-08-12 22:32:00,74.3,62.6,29.96,NNE,33,0.0,0.0,67,0.20,,---,0.20,VWS V13.01,2013-08-13 02:32:00,
2013-08-12 22:37:00,73.9,62.3,29.96,NNE,33,0.0,0.0,67,0.20,,---,0.20,VWS V13.01,2013-08-13 02:37:00,
2013-08-12 22:42:00,74.1,62.9,29.96,NNE,33,0.0,0.0,68,0.20,,---,0.20,VWS V13.01,2013-08-13 02:42:00,
2013-08-12 22:47:00,74.3,63.1,29.96,NNE,33,0.0,0.0,68,0.20,,---,0.20,VWS V13.01,2013-08-13 02:47:00,
2013-08-12 22:52:00,74.3,63.1,29.96,NNE,33,0.0,0.0,68,0.24,,---,0.24,VWS V13.01,2013-08-13 02:52:00,
2013-08-12 22:57:00,74.3,63.1,29.96,NNE,33,0.0,0.0,68,0.24,,---,0.24,VWS V13.01,2013-08-13 02:57:00,
2013-08-12 23:02:00,74.1,63.3,29.96,NNE,33,0.0,0.0,69,0.24,,---,0.24,VWS V13.01,2013-08-13 03:02:00,
2013-08-12 23:07:00,74.1,63.3,29.96,NNE,33,0.0,0.0,69,0.24,,---,0.24,VWS V13.01,2013-08-13 03:07:00,
2013-08-12 23:12:00,74.1,63.3,29.96,NNE,33,0.0,0.0,69,0.24,,---,0.24,VWS V13.01,2013-08-13 03:12:00,
2013-08-12 23:17:00,74.1,63.3,29.96,NNE,33,0.0,0.0,69,0.24,,---,0.24,VWS V13.01,2013-08-13 03:17:00,
2013-08-12 23:22:00,74.1,63.3,29.96,NNE,33,0.0,0.0,69,0.12,,---,0.24,VWS V13.01,2013-08-13 03:22:00,
2013-08-12 23:27:00,74.3,63.5,29.96,NNE,33,0.0,0.0,69,0.12,,---,0.24,VWS V13.01,2013-08-13 03:27:00,
2013-08-12 23:32:00,74.3,63.5,29.96,NNE,33,0.0,0.0,69,0.04,,---,0.24,VWS V13.01,2013-08-13 03:32:00,
2013-08-12 23:37:00,74.3,63.5,29.96,NNE,33,0.0,0.0,69,0.04,,---,0.24,VWS V13.01,2013-08-13 03:37:00,
2013-08-12 23:42:00,74.3,63.5,29.96,NNE,33,0.0,0.0,69,0.04,,---,0.24,VWS V13.01,2013-08-13 03:42:00,
2013-08-12 23:47:00,74.3,63.5,29.96,NNE,33,0.0,0.0,69,0.04,,---,0.24,VWS V13.01,2013-08-13 03:47:00,
2013-08-12 23:52:00,74.1,63.3,29.96,NNE,33,0.0,0.0,69,0.00,,---,0.24,VWS V13.01,2013-08-13 03:52:00,
2013-08-12 23:57:00,74.1,63.3,29.96,NNE,33,0.0,0.0,69,0.00,,---,0.24,VWS V13.01,2013-08-13 03:57:00,